| time (UTC) | temp C | wind direction | speed KPH | gust KPH | rain 1hr cm | rain 24hr cm | rain mn cm | humidity % | barometer mb |
| 20260502225533 | 22 | 83 | 17.7 | 29.0 | 0.00 | 0.00 | 0.30 | 41 | 1016.5 |
| 20260502224853 | -17 | 83 | 17.7 | 14.5 | 0.00 | 0.00 | 0.30 | ||
| 20260502223959 | -17 | 83 | 20.9 | 14.5 | 0.00 | 0.00 | 0.30 | ||
| 20260502222633 | -17 | 83 | 20.9 | 19.3 | 0.00 | 0.00 | 0.30 | ||
| 20260502221245 | -17 | 83 | 20.9 | 20.9 | 0.00 | 0.00 | 0.30 | ||
| 20260502215422 | -17 | 82 | 19.3 | 20.9 | 0.00 | 0.00 | 0.30 | ||
| 20260502213556 | -17 | 81 | 20.9 | 14.5 | 0.00 | 0.00 | 0.30 | ||
| 20260502212446 | -17 | 81 | 20.9 | 24.1 | 0.00 | 0.00 | 0.30 | ||
| 20260502211337 | 22 | 81 | 22.5 | 35.4 | 0.00 | 0.00 | 0.30 | 43 | 1016.1 |
| 20260502210657 | -17 | 81 | 24.1 | 24.1 | 0.00 | 0.00 | 0.30 | ||
| 20260502205803 | -17 | 81 | 25.7 | 22.5 | 0.00 | 0.00 | 0.30 | ||
| 20260502204238 | -17 | 81 | 24.1 | 27.4 | 0.00 | 0.00 | 0.30 | ||
| 20260502203343 | -17 | 81 | 32.2 | 14.5 | 0.00 | 0.00 | 0.30 | ||
| 20260502202233 | -17 | 81 | 20.9 | 25.7 | 0.00 | 0.00 | 0.30 | ||
| 20260502201122 | -17 | 81 | 25.7 | 22.5 | 0.00 | 0.00 | 0.30 | ||
| 20260502195728 | -17 | 80 | 17.7 | 37.0 | 0.00 | 0.00 | 0.30 | ||
| 20260502194549 | 21 | 81 | 19.3 | 53.1 | 0.00 | 0.00 | 0.30 | 50 | 1016.8 |
| 20260502193909 | 21 | 81 | 32.2 | 53.1 | 0.00 | 0.00 | 0.30 | 48 | 1016.8 |
| 20260502193229 | -17 | 81 | 22.5 | 19.3 | 0.00 | 0.00 | 0.30 | ||
| 20260502191620 | -17 | 81 | 25.7 | 29.0 | 0.00 | 0.00 | 0.30 | ||
| 20260502190724 | 21 | 81 | 29.0 | 43.5 | 0.00 | 0.00 | 0.30 | 56 | 1016.9 |
| 20260502190044 | 21 | 81 | 27.4 | 43.5 | 0.00 | 0.00 | 0.30 | 60 | 1016.9 |
| 20260502185404 | 21 | 81 | 29.0 | 51.5 | 0.00 | 0.00 | 0.30 | 60 | 1016.8 |
| 20260502184724 | 21 | 82 | 29.0 | 51.5 | 0.00 | 0.00 | 0.30 | 58 | 1016.8 |
| 20260502184044 | 21 | 81 | 22.5 | 48.3 | 0.00 | 0.00 | 0.30 | 58 | 1016.7 |
| 20260502183404 | 21 | 81 | 25.7 | 43.5 | 0.00 | 0.00 | 0.30 | 60 | 1016.7 |
| 20260502182724 | 21 | 81 | 22.5 | 43.5 | 0.00 | 0.00 | 0.30 | 61 | 1016.6 |
| 20260502182044 | 21 | 81 | 27.4 | 43.5 | 0.00 | 0.00 | 0.30 | 58 | 1016.8 |
| 20260502181404 | 21 | 82 | 19.3 | 46.7 | 0.00 | 0.00 | 0.30 | 60 | 1016.8 |
| 20260502180724 | -17 | 83 | 17.7 | 46.7 | 0.00 | 0.00 | 0.30 | ||
| 20260502162825 | 19 | 82 | 24.1 | 41.8 | 0.00 | 0.00 | 0.30 | 65 | 1017.9 |
| 20260502162145 | 19 | 82 | 20.9 | 45.1 | 0.00 | 0.00 | 0.30 | 65 | 1017.8 |
| 20260502161505 | -17 | 82 | 17.7 | 22.5 | 0.00 | 0.00 | 0.30 | ||
| 20260502160611 | -17 | 83 | 19.3 | 11.3 | 0.00 | 0.00 | 0.30 | ||
| 20260502152117 | 17 | 83 | 19.3 | 30.6 | 0.00 | 0.00 | 0.30 | 77 | 1017.6 |
| 20260502151437 | -17 | 83 | 24.1 | 20.9 | 0.00 | 0.00 | 0.30 | ||
| 20260502150155 | -17 | 83 | 17.7 | 20.9 | 0.00 | 0.00 | 0.30 | ||
| 20260502130405 | -17 | 83 | 19.3 | 12.9 | 0.00 | 0.00 | 0.30 | ||
| 20260502123406 | 12 | 83 | 16.1 | 24.1 | 0.00 | 0.00 | 0.30 | 91 | 1015.8 |
| 20260502122726 | 12 | 83 | 14.5 | 25.7 | 0.00 | 0.00 | 0.30 | 91 | 1015.8 |
| 20260502122046 | -17 | 83 | 12.9 | 14.5 | 0.00 | 0.00 | 0.30 | ||
| 20260502120936 | 12 | 83 | 14.5 | 29.0 | 0.00 | 0.00 | 0.30 | 92 | 1015.7 |
| 20260502120256 | 12 | 83 | 17.7 | 30.6 | 0.00 | 0.00 | 0.30 | 92 | 1015.4 |
| 20260502115616 | 12 | 83 | 20.9 | 30.6 | 0.00 | 0.00 | 0.30 | 92 | 1015.3 |
| 20260502114936 | -17 | 83 | 20.9 | 17.7 | 0.00 | 0.00 | 0.30 | ||
| 20260502114008 | 11 | 83 | 19.3 | 35.4 | 0.00 | 0.00 | 0.30 | 93 | 1015.0 |
| 20260502113328 | 11 | 84 | 12.9 | 30.6 | 0.00 | 0.00 | 0.30 | 94 | 1015.0 |
| 20260502112648 | 11 | 83 | 16.1 | 25.7 | 0.00 | 0.00 | 0.30 | 94 | 1015.1 |
| 20260502112008 | 11 | 83 | 12.9 | 29.0 | 0.00 | 0.00 | 0.30 | 94 | 1015.0 |
| 20260502111328 | -17 | 84 | 14.5 | 24.1 | 0.00 | 0.00 | 0.30 | ||
| 20260502110403 | -17 | 83 | 20.9 | 20.9 | 0.00 | 0.00 | 0.30 | ||
| 20260502104356 | -17 | 83 | 25.7 | 20.9 | 0.00 | 0.00 | 0.30 | ||
| 20260502103502 | -17 | 84 | 25.7 | 30.6 | 0.00 | 0.00 | 0.30 | ||
| 20260502102253 | 11 | 83 | 22.5 | 41.8 | 0.00 | 0.00 | 0.30 | 96 | 1014.4 |
| 20260502100149 | -17 | 84 | 27.4 | 33.8 | 0.00 | 0.00 | 0.30 | ||
| 20260502090824 | 11 | 84 | 22.5 | 37.0 | 0.00 | 0.00 | 0.30 | 96 | 1013.7 |
| 20260502090144 | 11 | 84 | 24.1 | 40.2 | 0.00 | 0.00 | 0.30 | 96 | 1013.5 |
| 20260502071009 | -17 | 84 | 14.5 | 11.3 | 0.00 | 0.00 | 0.28 | ||
| 20260502070113 | 11 | 84 | 14.5 | 20.9 | 0.00 | 0.00 | 0.28 | 96 | 1013.8 |
| 20260502065433 | -17 | 84 | 11.3 | 8.0 | 0.00 | 0.00 | 0.28 | ||
| 20260502064538 | 11 | 84 | 14.5 | 35.4 | 0.00 | 0.00 | 0.28 | 96 | 1013.9 |
| 20260502063858 | 11 | 84 | 22.5 | 45.1 | 0.00 | 0.00 | 0.28 | 96 | 1013.0 |
| 20260502063218 | 11 | 84 | 29.0 | 45.1 | 0.00 | 0.00 | 0.28 | 96 | 1013.1 |
| 20260502062538 | -17 | 84 | 27.4 | 35.4 | 0.00 | 0.00 | 0.28 | ||
| 20260502060750 | -17 | 84 | 24.1 | 14.5 | 0.00 | 0.00 | 0.25 | ||
| 20260502055856 | -17 | 85 | 22.5 | 22.5 | 0.00 | 0.00 | 0.13 | ||
| 20260502054750 | 12 | 83 | 11.3 | 33.8 | 0.00 | 0.00 | 0.00 | 97 | 1014.8 |
| 20260502054110 | 12 | 85 | 14.5 | 24.1 | 0.00 | 0.00 | 0.00 | 97 | 1014.9 |
| 20260502053430 | -17 | 85 | 12.9 | 17.7 | 0.00 | 0.00 | 0.00 | ||
| 20260502052248 | -17 | 84 | 14.5 | 9.7 | 0.00 | 0.00 | 0.00 | ||
| 20260502050901 | -17 | 85 | 20.9 | 12.9 | 0.00 | 0.00 | 0.00 | ||
| 20260502050000 | 12 | 84 | 22.5 | 33.8 | 0.00 | 0.00 | 5.89 | 97 | 1013.1 |
| 20260502045320 | -17 | 85 | 12.9 | 19.3 | 0.00 | 0.00 | 5.89 | ||
| 20260502043954 | 12 | 85 | 12.9 | 29.0 | 0.00 | 0.00 | 5.89 | 97 | 1013.7 |
| 20260502043314 | -17 | 85 | 16.1 | 19.3 | 0.00 | 0.00 | 5.87 | ||
| 20260502042421 | -17 | 84 | 22.5 | 24.1 | 0.00 | 0.00 | 5.82 | ||
| 20260502041527 | -17 | 85 | 14.5 | 8.0 | 0.00 | 0.00 | 5.71 | ||
| 20260502040418 | 13 | 85 | 24.1 | 40.2 | 0.00 | 0.00 | 5.71 | 97 | 1012.9 |
| 20260502035738 | 13 | 84 | 22.5 | 32.2 | 0.00 | 0.00 | 5.71 | 97 | 1012.7 |
| 20260502035058 | -17 | 85 | 24.1 | 25.7 | 0.00 | 0.00 | 5.69 | ||
| 20260502034204 | -17 | 84 | 24.1 | 24.1 | 0.00 | 0.00 | 5.54 | ||
| 20260502033105 | 13 | 84 | 20.9 | 40.2 | 0.00 | 0.00 | 5.38 | 97 | 1012.9 |
| 20260502032425 | -17 | 84 | 27.4 | 38.6 | 0.00 | 0.00 | 5.36 | ||
| 20260502030955 | 13 | 85 | 20.9 | 33.8 | 0.00 | 0.00 | 5.36 | 96 | 1012.9 |
| 20260502030315 | 14 | 85 | 19.3 | 33.8 | 0.00 | 0.00 | 5.36 | 97 | 1013.1 |
| 20260502025635 | -17 | 84 | 16.1 | 17.7 | 0.00 | 0.00 | 5.36 | ||
| 20260502024745 | -17 | 85 | 17.7 | 19.3 | 0.00 | 0.00 | 5.31 | ||
| 20260502023846 | -17 | 84 | 17.7 | 22.5 | 0.00 | 0.00 | 5.31 | ||
| 20260502022953 | -17 | 84 | 19.3 | 30.6 | 0.00 | 0.00 | 5.31 | ||
| 20260502022059 | -17 | 84 | 19.3 | 22.5 | 0.00 | 0.00 | 5.31 | ||
| 20260502021204 | 14 | 85 | 22.5 | 35.4 | 0.00 | 0.00 | 5.31 | 97 | 1012.1 |
| 20260502020524 | -17 | 84 | 12.9 | 19.3 | 0.00 | 0.00 | 5.31 | ||
| 20260502014836 | 13 | 85 | 12.9 | 25.7 | 0.00 | 0.00 | 5.31 | 97 | 1011.9 |
| 20260502014156 | -17 | 85 | 14.5 | 16.1 | 0.00 | 0.00 | 5.31 | ||
| 20260502013046 | -17 | 85 | 8.0 | 6.4 | 0.00 | 0.00 | 5.31 | ||
| 20260502010614 | -17 | 84 | 20.9 | 22.5 | 0.00 | 0.00 | 5.31 | ||
| 20260502005505 | 12 | 84 | 14.5 | 35.4 | 0.00 | 0.00 | 5.31 | 96 | 1011.1 |
| 20260502004825 | -17 | 84 | 14.5 | 11.3 | 0.00 | 0.00 | 5.31 | ||
| 20260502003714 | 13 | 84 | 20.9 | 33.8 | 0.00 | 0.00 | 5.31 | 96 | 1011.9 |
| 20260502003034 | -17 | 84 | 22.5 | 30.6 | 0.00 | 0.00 | 5.31 | ||
| 20260502002141 | -17 | 85 | 22.5 | 20.9 | 0.00 | 0.00 | 5.26 | ||
| 20260502001245 | 13 | 84 | 19.3 | 32.2 | 0.00 | 0.00 | 5.26 | 96 | 1012.1 |
| 20260502000605 | -17 | 85 | 17.7 | 22.5 | 0.00 | 0.00 | 5.26 | ||
| 20260501235459 | 13 | 84 | 22.5 | 33.8 | 0.00 | 0.00 | 5.26 | 96 | 1011.8 |
| 20260501234819 | 13 | 84 | 19.3 | 37.0 | 0.00 | 0.00 | 5.26 | 96 | 1011.6 |
| 20260501234139 | -17 | 84 | 19.3 | 25.7 | 0.00 | 0.00 | 5.23 | ||
| 20260501233212 | 13 | 84 | 17.7 | 32.2 | 0.00 | 0.00 | 5.23 | 96 | 1011.5 |
| 20260501232532 | -17 | 85 | 22.5 | 17.7 | 0.00 | 0.00 | 5.23 | ||
| 20260501231638 | 13 | 84 | 24.1 | 33.8 | 0.00 | 0.00 | 5.23 | 96 | 1011.7 |
| 20260501230958 | -17 | 85 | 24.1 | 24.1 | 0.00 | 0.00 | 5.21 | ||
| 20260501230556 | -17 | 84 | 22.5 | 22.5 | 0.00 | 0.00 | 5.21 |